Total_Precipitation_Accumulation
0.27 0.28 0.27 0.26 0.25 0.23 0.23 0.24 0.22 0.20 0.18 0.16 0.14 0.12 0.11 0.11 0.11 0.12 0.13 0.13 0.13 0.14 0.14 0.14 0.15 0.15 0.15 0.14 0.14 0.14 0.15 0.20 0.26 0.16 0.10 0.10 0.13 0.17 0.19 0.21 0.20 0.17 0.15
0.18 0.16 0.16 0.16 0.15 0.14 0.14 0.14 0.13 0.12 0.12 0.12 0.12 0.12 0.11 0.11 0.12 0.12 0.13 0.13 0.14 0.14 0.13 0.13 0.13 0.13 0.15 0.14 0.14 0.13 0.15 0.20 0.28 0.27 0.17 0.13 0.13 0.16 0.19 0.21 0.14 0.13 0.14
0.13 0.12 0.12 0.12 0.11 0.11 0.11 0.11 0.11 0.11 0.10 0.09 0.08 0.08 0.08 0.08 0.08 0.09 0.09 0.10 0.10 0.10 0.09 0.09 0.09 0.09 0.11 0.11 0.13 0.13 0.16 0.18 0.25 0.29 0.20 0.15 0.12 0.12 0.19 0.21 0.20 0.25 0.15
0.11 0.11 0.12 0.12 0.11 0.11 0.11 0.10 0.09 0.07 0.06 0.05 0.05 0.04 0.05 0.05 0.05 0.05 0.04 0.04 0.04 0.04 0.04 0.05 0.05 0.07 0.11 0.14 0.13 0.15 0.19 0.22 0.23 0.26 0.22 0.16 0.14 0.15 0.26 0.34 0.31 0.26 0.19
0.13 0.13 0.13 0.12 0.10 0.09 0.08 0.07 0.05 0.04 0.03 0.03 0.03 0.03 0.02 0.02 0.01 0.01 0.01 0.01 0.02 0.02 0.03 0.04 0.05 0.07 0.13 0.15 0.16 0.18 0.23 0.27 0.28 0.31 0.28 0.23 0.19 0.25 0.34 0.38 0.34 0.24 0.18
0.16 0.14 0.13 0.11 0.09 0.08 0.06 0.05 0.04 0.04 0.03 0.03 0.02 0.02 0.02 0.01 0.00 0.00 0.00 0.01 0.02 0.03 0.05 0.06 0.05 0.05 0.07 0.09 0.11 0.15 0.22 0.29 0.34 0.38 0.36 0.31 0.26 0.34 0.43 0.44 0.44 0.39 0.28
0.19 0.17 0.16 0.13 0.11 0.09 0.06 0.05 0.04 0.04 0.03 0.03 0.02 0.03 0.03 0.02 0.00 0.00 0.00 0.01 0.04 0.07 0.09 0.09 0.07 0.07 0.12 0.14 0.11 0.10 0.14 0.20 0.34 0.47 0.48 0.39 0.37 0.43 0.55 0.55 0.50 0.47 0.39
0.22 0.19 0.15 0.13 0.10 0.07 0.05 0.04 0.03 0.04 0.04 0.04 0.04 0.04 0.07 0.03 0.00 0.00 0.00 0.02 0.06 0.08 0.09 0.10 0.14 0.18 0.15 0.10 0.08 0.10 0.18 0.31 0.39 0.43 0.49 0.44 0.44 0.49 0.59 0.60 0.53 0.46 0.36
0.21 0.15 0.10 0.09 0.08 0.05 0.04 0.04 0.04 0.05 0.05 0.05 0.04 0.06 0.09 0.08 0.01 0.00 0.00 0.02 0.05 0.06 0.06 0.08 0.11 0.16 0.13 0.11 0.11 0.16 0.23 0.34 0.34 0.42 0.49 0.55 0.60 0.59 0.55 0.52 0.57 0.59 0.50
0.12 0.08 0.06 0.06 0.05 0.04 0.04 0.04 0.05 0.05 0.06 0.06 0.06 0.07 0.10 0.11 0.02 0.00 0.01 0.03 0.05 0.05 0.08 0.14 0.13 0.10 0.11 0.12 0.12 0.21 0.32 0.37 0.49 0.66 0.78 0.84 0.79 0.71 0.61 0.57 0.64 0.68 0.67
0.06 0.05 0.06 0.05 0.04 0.04 0.04 0.06 0.07 0.07 0.10 0.10 0.09 0.10 0.11 0.07 0.03 0.00 0.01 0.03 0.05 0.07 0.13 0.22 0.24 0.14 0.14 0.12 0.14 0.25 0.39 0.47 0.68 0.94 0.98 0.86 0.73 0.62 0.55 0.55 0.57 0.63 0.67
0.05 0.06 0.06 0.04 0.02 0.02 0.06 0.08 0.08 0.11 0.12 0.12 0.12 0.12 0.12 0.10 0.05 0.02 0.01 0.02 0.04 0.10 0.22 0.25 0.24 0.21 0.18 0.17 0.23 0.37 0.47 0.64 0.87 1.03 0.94 0.76 0.60 0.50 0.45 0.42 0.45 0.50 0.53
0.09 0.09 0.07 0.05 0.03 0.03 0.05 0.08 0.09 0.11 0.11 0.09 0.09 0.09 0.09 0.12 0.09 0.02 0.01 0.02 0.04 0.10 0.22 0.26 0.26 0.25 0.28 0.40 0.47 0.55 0.65 0.81 0.95 0.92 0.78 0.67 0.57 0.48 0.43 0.40 0.40 0.43 0.45
0.13 0.12 0.10 0.09 0.05 0.04 0.05 0.04 0.07 0.08 0.08 0.08 0.08 0.08 0.09 0.11 0.09 0.06 0.05 0.07 0.09 0.14 0.22 0.33 0.44 0.49 0.52 0.61 0.69 0.77 0.82 0.89 0.84 0.73 0.62 0.58 0.51 0.45 0.42 0.39 0.39 0.40 0.41
0.12 0.11 0.09 0.06 0.05 0.07 0.07 0.03 0.03 0.04 0.02 0.03 0.05 0.06 0.09 0.10 0.07 0.08 0.09 0.11 0.15 0.20 0.24 0.38 0.56 0.63 0.68 0.73 0.73 0.77 0.79 0.76 0.74 0.68 0.61 0.53 0.47 0.43 0.41 0.38 0.39 0.36 0.39
0.08 0.08 0.07 0.05 0.05 0.07 0.10 0.10 0.03 0.01 0.00 0.01 0.02 0.04 0.05 0.08 0.07 0.06 0.09 0.13 0.18 0.25 0.31 0.48 0.63 0.68 0.70 0.71 0.68 0.68 0.69 0.65 0.61 0.59 0.58 0.53 0.48 0.44 0.42 0.39 0.38 0.37 0.39
0.05 0.06 0.06 0.06 0.06 0.07 0.10 0.17 0.20 0.11 0.03 0.01 0.02 0.04 0.05 0.07 0.07 0.06 0.08 0.13 0.17 0.24 0.32 0.51 0.67 0.78 0.78 0.72 0.65 0.62 0.67 0.68 0.64 0.61 0.56 0.52 0.46 0.41 0.39 0.37 0.35 0.34 0.35
0.04 0.05 0.04 0.07 0.06 0.06 0.07 0.11 0.18 0.22 0.20 0.15 0.07 0.05 0.06 0.08 0.10 0.10 0.11 0.14 0.21 0.26 0.37 0.51 0.63 0.68 0.70 0.70 0.64 0.61 0.65 0.67 0.64 0.57 0.51 0.48 0.42 0.38 0.35 0.36 0.33 0.27 0.26
0.03 0.05 0.04 0.04 0.04 0.04 0.05 0.07 0.10 0.13 0.18 0.20 0.18 0.11 0.09 0.10 0.14 0.16 0.16 0.18 0.24 0.29 0.36 0.45 0.53 0.54 0.51 0.52 0.51 0.51 0.55 0.59 0.54 0.45 0.42 0.42 0.38 0.33 0.33 0.33 0.28 0.18 0.19
0.02 0.02 0.01 0.02 0.03 0.03 0.04 0.05 0.06 0.10 0.15 0.19 0.17 0.13 0.13 0.19 0.26 0.25 0.19 0.17 0.18 0.22 0.29 0.37 0.43 0.41 0.38 0.37 0.34 0.33 0.36 0.39 0.37 0.34 0.32 0.31 0.31 0.30 0.28 0.25 0.22 0.19 0.18
0.02 0.02 0.01 0.01 0.03 0.03 0.02 0.02 0.03 0.06 0.10 0.14 0.12 0.09 0.14 0.20 0.27 0.29 0.29 0.26 0.24 0.23 0.24 0.26 0.30 0.33 0.32 0.29 0.25 0.22 0.23 0.24 0.24 0.25 0.26 0.26 0.26 0.25 0.20 0.16 0.13 0.10 0.10
0.01 0.01 0.01 0.02 0.02 0.02 0.01 0.01 0.01 0.03 0.06 0.09 0.11 0.09 0.14 0.17 0.21 0.24 0.29 0.33 0.32 0.29 0.25 0.23 0.23 0.26 0.29 0.28 0.22 0.18 0.17 0.18 0.20 0.23 0.24 0.24 0.22 0.18 0.14 0.11 0.08 0.06 0.05
0.00 0.00 0.00 0.01 0.00 0.00 0.00 0.00 0.01 0.01 0.04 0.06 0.08 0.10 0.11 0.16 0.18 0.21 0.25 0.30 0.33 0.31 0.26 0.22 0.22 0.25 0.27 0.27 0.23 0.17 0.14 0.14 0.16 0.18 0.23 0.23 0.19 0.15 0.11 0.08 0.05 0.04 0.03
0.00 0.00 0.00 0.00 0.00 0.00 0.00 0.00 0.00 0.00 0.01 0.02 0.05 0.07 0.10 0.14 0.15 0.17 0.21 0.25 0.29 0.30 0.29 0.27 0.26 0.26 0.25 0.24 0.21 0.13 0.10 0.11 0.12 0.14 0.18 0.20 0.17 0.13 0.08 0.06 0.04 0.03 0.02
0.00 0.00 0.00 0.00 0.00 0.00 0.00 0.00 0.00 0.00 0.01 0.01 0.02 0.03 0.05 0.07 0.10 0.11 0.15 0.19 0.22 0.25 0.25 0.24 0.24 0.22 0.20 0.17 0.14 0.10 0.09 0.11 0.12 0.12 0.14 0.15 0.12 0.10 0.08 0.06 0.04 0.03 0.03
0.00 0.00 0.00 0.00 0.00 0.00 0.00 0.01 0.01 0.01 0.01 0.01 0.01 0.02 0.02 0.03 0.05 0.07 0.08 0.09 0.12 0.16 0.19 0.20 0.20 0.17 0.12 0.08 0.07 0.07 0.07 0.05 0.05 0.06 0.10 0.13 0.11 0.09 0.08 0.07 0.04 0.03 0.02